Weather History for Gaylord, MI

Change the Weather History Date:

Friday, April 5, 2013

  Actual Average Record
Temperature  
Mean Temperature 30 °F -  
Max Temperature 34 °F 46 °F 76 °F (1988)
Min Temperature 25 °F 24 °F -3 °F (1982)
Degree Days  
Heating Degree Days 36    
Moisture  
Dew Point 16 °F    
Average Humidity 58    
Maximum Humidity 75    
Minimum Humidity 42    
Precipitation  
Precipitation 0.00 in - - ()
Sea Level Pressure  
Sea Level Pressure 30.16 in    
Wind  
Wind Speed 5 mph (NW)    
Max Wind Speed 10 mph    
Max Gust Speed 18 mph    
Visibility 10 miles    
Events      
Averages and records for this station are not official NWS values.
T = Trace of Precipitation, MM = Missing Value Source: NWS Daily Summary

Daily Weather History Graph

Daily Weather History Graph

Search for Another Location

Airport:

Trip Planner

Search our weather history database for the weather conditions in past years. The results will help you decide how hot, cold, wet, or windy it might be!

Date:

Astronomy

Apr. 05, 2013 Rise Set
Actual Time 7:11 AM EDT 8:11 PM EDT
Civil Twilight 6:41 AM EDT 8:41 PM EDT
Nautical Twilight 6:05 AM EDT 9:17 PM EDT
Astronomical Twilight 5:28 AM EDT 9:55 PM EDT
Moon 4:30 AM EDT (4/5) 3:23 PM EDT (4/5)
Length of Visible Light 14h 00m
Length of Day
13h 00m
Waning Crescent, 24% of the Moon is Illuminated
Apr 5
Waning Crescent
Apr 10
New
Apr 18
First Quarter
Apr 25
Full
May 2
Last Quarter

Hourly Weather History & Observations

Time (EDT) Temp. Windchill Dew Point Humidity Pressure Visibility Wind Dir Wind Speed Gust Speed Precip Events Conditions
12:53 AM 33.1 °F 30.0 °F 25.0 °F 72% 30.01 in 10.0 mi Variable 3.5 mph - N/A   Overcast
1:53 AM 30.9 °F 26.2 °F 21.9 °F 69% 30.02 in 10.0 mi Variable 4.6 mph - N/A   Mostly Cloudy
2:53 AM 30.0 °F 25.2 °F 21.9 °F 72% 30.02 in 10.0 mi NNW 4.6 mph - N/A   Clear
3:53 AM 28.9 °F 22.8 °F 19.9 °F 69% 30.04 in 10.0 mi NW 5.8 mph - N/A   Clear
4:53 AM 28.0 °F 22.8 °F 19.9 °F 72% 30.06 in 10.0 mi Variable 4.6 mph - N/A   Clear
5:53 AM 27.0 °F 23.0 °F 19.9 °F 75% 30.09 in 10.0 mi NW 3.5 mph - N/A   Clear
6:53 AM 26.1 °F 19.4 °F 19.0 °F 75% 30.12 in 10.0 mi NW 5.8 mph - N/A   Clear
7:53 AM 26.1 °F 18.4 °F 17.1 °F 69% 30.15 in 10.0 mi Variable 6.9 mph - N/A   Clear
8:53 AM 27.0 °F 21.6 °F 16.0 °F 63% 30.17 in 10.0 mi Variable 4.6 mph 16.1 mph N/A   Clear
9:53 AM 28.0 °F 18.6 °F 15.1 °F 58% 30.19 in 10.0 mi North 10.4 mph 17.3 mph N/A   Mostly Cloudy
10:53 AM 28.0 °F 21.7 °F 15.1 °F 58% 30.20 in 10.0 mi Variable 5.8 mph - N/A   Scattered Clouds
11:53 AM 30.0 °F 24.1 °F 14.0 °F 51% 30.21 in 10.0 mi Variable 5.8 mph - N/A   Scattered Clouds
12:53 PM 32.0 °F 26.4 °F 15.1 °F 50% 30.21 in 10.0 mi Variable 5.8 mph - N/A   Mostly Cloudy
1:53 PM 32.0 °F 25.6 °F 15.1 °F 50% 30.20 in 10.0 mi WNW 6.9 mph - N/A   Clear
2:53 PM 32.0 °F 24.2 °F 12.9 °F 45% 30.20 in 10.0 mi WNW 9.2 mph - N/A   Clear
3:53 PM 32.0 °F 25.6 °F 12.0 °F 44% 30.19 in 10.0 mi Variable 6.9 mph - N/A   Clear
4:53 PM 30.9 °F 23.5 °F 10.0 °F 42% 30.19 in 10.0 mi WNW 8.1 mph 18.4 mph N/A   Clear
5:53 PM 32.0 °F 27.5 °F 10.9 °F 42% 30.21 in 10.0 mi Variable 4.6 mph - N/A   Clear
6:53 PM 30.9 °F 25.2 °F 12.0 °F 46% 30.22 in 10.0 mi Variable 5.8 mph - N/A   Clear
7:53 PM 28.9 °F 25.2 °F 12.0 °F 49% 30.22 in 10.0 mi NW 3.5 mph - N/A   Clear
8:53 PM 28.0 °F - 12.0 °F 51% 30.23 in 10.0 mi Calm Calm - N/A   Clear
9:53 PM 28.0 °F - 14.0 °F 56% 30.25 in 10.0 mi Calm Calm - N/A   Clear
10:53 PM 27.0 °F - 15.1 °F 61% 30.24 in 10.0 mi Calm Calm - N/A   Clear
11:53 PM 25.0 °F - 14.0 °F 63% 30.23 in 10.0 mi Calm Calm - N/A   Clear